Regional Weather Roundup
Issued by NWS Sterling, VA

Home | Current Version | Previous Version | Text Only | Print | Product List | Glossary Off
Versions: 1 2 3 4 5 6 7 8 9 10 11 12 13 14 15 16 17 18 19 20 21 22 23 24 25 26 27 28 29 30 31 32 33 34 35 36 37 38 39 40 41 42 43 44 45 46 47 48 49 50

000
ASUS41 KLWX 271010
RWRLWX

REGIONAL WEATHER ROUNDUP
NATIONAL WEATHER SERVICE BALTIMORE MD/WASHINGTON DC
600 AM EDT FRI MAY 27 2016

Note: "FAIR" indicates few or no clouds below 12,000 feet
with no significant weather and/or obstructions to visibility.
 TC=TEMPERATURE CELSIUS

 * =Non NWS site. Station does not report precipitation (e.g. rain,
    snow, etc.), thunder, or fog.

DCZ001-MDZ009-015-VAZ040>042-051-053>054-271100-
WASHINGTON METRO

CITY           SKY/WX    TMP DP  RH WIND       PRES   REMARKS
WASHINGTON NAT MOCLDY    70  64  81 S7        30.06S
DULLES         FAIR      68  63  84 SW3       30.07R
ANDREWS AFB    CLEAR     69  64  81 S9        30.06S
FT BELVOIR     FAIR      64  62  95 CALM      30.06S FOG
QUANTICO       FAIR      70  65  84 VRB3      30.07S
COLLEGE PARK*  FAIR      70  63  78 S3        30.05S
LEESBURG*      FAIR      64  64 100 CALM      30.08R FOG
MANASSAS*      FAIR      64  63  94 CALM      30.07R

$$

MDZ006>007-011-014-271100-
BALTIMORE METRO

CITY           SKY/WX    TMP DP  RH WIND       PRES   REMARKS
BWI AIRPORT    PTCLDY    69  63  81 CALM      30.05S
MD SCIENCE CTR   N/A     71  63  75 MISG      30.05S
MARTIN STATE   CLEAR     70  68  94 SE3       30.07S
ANNAPOLIS      CLEAR     68  66  93 SE3       30.06R
FORT MEADE*    CLEAR     63  61  94 CALM      30.08S

$$

MDZ012-015-019>023-271100-
MARYLAND EASTERN SHORE

CITY           SKY/WX    TMP DP  RH WIND       PRES   REMARKS
OCEAN CITY     CLEAR     65  63  93 S5        30.12R
SALISBURY      PTCLDY    67  63  87 S8        30.10S
BAY BRIDGE AP* CLEAR     72  66  83 S3        30.07R
CAMBRIDGE*       N/A     68  64  88 S5        30.07F
EASTON*        MOCLDY    72  70  93 S5        30.11S

$$

MDZ017>025-271100-
SOUTHERN MARYLAND

CITY           SKY/WX    TMP DP  RH WIND       PRES   REMARKS
PATUXENT RIVER PTCLDY    71  63  75 SW13      30.07F
ST INIGOES     CLEAR     71  64  78 S8        30.08S
LEONARDTOWN*   CLEAR     70  63  78 S5        30.10S

$$

MDZ003>005-271100-
NORTH CENTRAL MARYLAND

CITY           SKY/WX    TMP DP  RH WIND       PRES   REMARKS
FREDERICK*     CLEAR     64  64 100 S5        30.09R
HAGERSTOWN APT PTCLDY    69  65  86 S5        30.08R
WESTMINSTER*   CLEAR     70  66  88 SW7       30.07R

$$

MDZ501>502-271100-
WESTERN MARYLAND

CITY           SKY/WX    TMP DP  RH WIND       PRES   REMARKS
OAKLAND*       CLOUDY    63  59  88 SW5       30.17R
CUMBERLAND*    CLOUDY    64  64 100 CALM      30.13R VSB<1/4

$$

VAZ025>031-271100-
SHENANDOAH VALLEY

CITY           SKY/WX    TMP DP  RH WIND       PRES   REMARKS
WINCHESTER*    CLOUDY    68  63  83 W3        30.09R
FRONT ROYAL*   PTSUNNY   63  63 100 CALM      30.08R
LURAY*         PTSUNNY   61  61 100 CALM      30.10R FOG
NEW MARKET*    PTSUNNY   61  61  99 CALM      30.10R
STAUNTON*      FAIR      60  59  98 CALM      30.13R FOG
WAYNESBORO*    FAIR      60  59  94 CALM      30.12R

$$

WVZ021-048>050-054>055-271100-
EASTERN WEST VIRGINIA PANHANDLE

CITY           SKY/WX    TMP DP  RH WIND       PRES   REMARKS
MARTINSBURG    CLOUDY    66  64  93 CALM      30.07R
PETERSBURG*    FOG       61  61 100 CALM      30.12S VSB 1/4

$$

VAZ036>039-050-271100-
CENTRAL FOOTHILLS

CITY           SKY/WX    TMP DP  RH WIND       PRES   REMARKS
CHARLOTTESVILL FAIR      67  62  84 S7        30.07F
CULPEPER*      FOG       63  63 100 CALM      30.08R VSB 1
ORANGE*        FAIR      64  64 100 CALM      30.09S
GORDONSVILLE*  FAIR      63  63  99 CALM      30.08R
WARRENTON*     FAIR      63  58  85 CALM      30.07R HAZE

$$

VAZ055>057-271100-
NORTH AND CENTRAL PIEDMONT

CITY           SKY/WX    TMP DP  RH WIND       PRES   REMARKS
FREDERICKSBRG* NOT AVBL
STAFFORD*      FAIR      65  63  92 CALM      30.10S

$$

NCZ024-NYZ072-PAZ021-071-VAZ022-071-271100-
OTHER REGIONAL OBSERVATIONS

CITY           SKY/WX    TMP DP  RH WIND       PRES   REMARKS
NEW YORK CITY  CLOUDY    74  58  57 CALM      30.09S
PHILADELPHIA   PTCLDY    70  62  76 S5        30.06F
PITTSBURGH     MOCLDY    66  62  87 S3        30.05S
ROANOKE        FAIR      66  63  90 N5        30.14R
RICHMOND       FAIR      67  63  87 S7        30.10F
RALEIGH        MOCLDY    70  61  73 S6        30.14S

$$

ANZ530>537-271100-
MARINE OBSERVATIONS

STATION/POSITION TIME  TEMP    WIND        PRES
                       AIR SEA DIR/SP/G
                 (UTC) (F)     (DEG/KT/KT) (MB)
THOMAS PT LIGHT  1000   69 65  180/ 12/ 12 1019.2R
BALT KEY BRIDGE  0900   71     110/  3/  4 1017.5F
COVE POINT       0900   72     250/ 13/ 17 1019.0R
LEWISETTA        0900   72 71  230/ 11/ 15 1018.6R
SOLOMONS ISLAND  0900   71 67  220/ 12/ 15   N/A
PINEY POINT      0900          230/ 13/ 15   N/A

$$




USA.gov is the U.S. government's official web portal to all federal, state and local government web resources and services.